Time,TemperatureF,DewpointF,PressureIn,WindDirection,WindDirectionDegrees,WindSpeedMPH,WindSpeedGustMPH,Humidity,HourlyPrecipIn,Conditions,Clouds,dailyrainin,SoftwareType,DateUTC
2013-06-16 00:02:00,64.0,59.0,30.09,SW,230,0.0,0.0,84,0.00,,,-99.99,,2013-06-16 04:02:00,
2013-06-16 00:12:00,64.0,59.0,30.09,SW,230,0.0,0.0,85,0.00,,,-99.99,,2013-06-16 04:12:00,
2013-06-16 01:12:00,64.0,61.0,30.06,SW,230,0.0,0.0,90,0.00,,,-99.99,,2013-06-16 05:12:00,
2013-06-16 02:33:00,63.0,60.0,30.06,SW,230,0.0,0.0,91,0.00,,,-99.99,,2013-06-16 06:33:00,
2013-06-16 03:23:00,62.0,60.0,30.04,SW,230,0.0,0.0,93,0.01,,,-99.99,,2013-06-16 07:23:00,
2013-06-16 03:33:00,62.0,60.0,30.04,SW,230,0.0,0.0,94,0.01,,,-99.99,,2013-06-16 07:33:00,
2013-06-16 03:43:00,62.0,60.0,30.04,SW,230,0.0,0.0,94,0.01,,,-99.99,,2013-06-16 07:43:00,
2013-06-16 03:53:00,62.0,60.0,30.04,SW,230,0.0,0.0,94,0.01,,,-99.99,,2013-06-16 07:53:00,
2013-06-16 04:02:00,62.0,60.0,30.04,SW,230,0.0,0.0,94,0.01,,,-99.99,,2013-06-16 08:02:00,
2013-06-16 04:12:00,62.0,60.0,30.04,SW,230,0.0,0.0,94,0.01,,,-99.99,,2013-06-16 08:12:00,
2013-06-16 04:22:00,62.0,60.0,30.04,SW,230,0.0,0.0,94,0.00,,,-99.99,,2013-06-16 08:22:00,
2013-06-16 04:33:00,62.0,60.0,30.04,SW,230,0.0,0.0,94,0.00,,,-99.99,,2013-06-16 08:33:00,
2013-06-16 04:43:00,61.0,60.0,30.04,SW,230,0.0,0.0,95,0.00,,,-99.99,,2013-06-16 08:43:00,
2013-06-16 04:54:00,61.0,60.0,30.04,SW,230,0.0,0.0,95,0.00,,,-99.99,,2013-06-16 08:54:00,
2013-06-16 05:02:00,61.0,60.0,30.03,SW,230,0.0,0.0,95,0.00,,,-99.99,,2013-06-16 09:02:00,
2013-06-16 05:11:00,62.0,60.0,30.03,SW,230,0.0,0.0,94,0.00,,,-99.99,,2013-06-16 09:11:00,
2013-06-16 05:22:00,62.0,60.0,30.03,SW,230,0.0,0.0,94,0.00,,,-99.99,,2013-06-16 09:22:00,
2013-06-16 05:33:00,62.0,61.0,30.04,SW,230,0.0,0.0,95,0.00,,,-99.99,,2013-06-16 09:33:00,
2013-06-16 05:43:00,62.0,61.0,30.03,SW,230,0.0,0.0,95,0.00,,,-99.99,,2013-06-16 09:43:00,
2013-06-16 05:52:00,61.0,59.0,30.03,SW,230,0.0,0.0,94,0.00,,,-99.99,,2013-06-16 09:52:00,
2013-06-16 06:02:00,61.0,59.0,30.03,SW,230,0.0,0.0,94,0.00,,,-99.99,,2013-06-16 10:02:00,
2013-06-16 06:12:00,61.0,59.0,30.03,SW,230,0.0,0.0,94,0.00,,,-99.99,,2013-06-16 10:12:00,
2013-06-16 06:22:00,62.0,60.0,30.03,SW,230,0.0,0.0,94,0.00,,,-99.99,,2013-06-16 10:22:00,
2013-06-16 06:33:00,62.0,61.0,30.03,SW,230,0.0,0.0,95,0.00,,,-99.99,,2013-06-16 10:33:00,
2013-06-16 06:43:00,62.0,61.0,30.03,SW,230,0.0,0.0,95,0.00,,,-99.99,,2013-06-16 10:43:00,
2013-06-16 06:54:00,62.0,61.0,30.03,SW,230,0.0,0.0,96,0.00,,,-99.99,,2013-06-16 10:54:00,
2013-06-16 07:02:00,62.0,61.0,30.03,SW,230,0.0,0.0,96,0.00,,,-99.99,,2013-06-16 11:02:00,
2013-06-16 07:12:00,62.0,61.0,30.03,SW,230,0.0,0.0,96,0.00,,,-99.99,,2013-06-16 11:12:00,
2013-06-16 07:22:00,62.0,61.0,30.03,SW,230,0.0,0.0,96,0.00,,,-99.99,,2013-06-16 11:22:00,
2013-06-16 07:34:00,61.0,60.0,30.02,SE,127,0.0,5.0,97,0.00,,,-99.99,,2013-06-16 11:34:00,
2013-06-16 07:43:00,61.0,60.0,30.02,SE,140,0.0,5.0,97,0.00,,,-99.99,,2013-06-16 11:43:00,
2013-06-16 07:52:00,61.0,60.0,30.01,SE,142,0.0,1.0,98,0.00,,,-99.99,,2013-06-16 11:52:00,
2013-06-16 08:02:00,61.0,60.0,30.01,ESE,123,0.0,0.0,98,0.00,,,-99.99,,2013-06-16 12:02:00,
2013-06-16 08:12:00,62.0,61.0,30.01,ESE,123,0.0,0.0,98,0.00,,,-99.99,,2013-06-16 12:12:00,
2013-06-16 08:22:00,62.0,61.0,30.01,SE,141,1.0,7.0,98,0.01,,,-99.99,,2013-06-16 12:22:00,
2013-06-16 08:33:00,62.0,61.0,30.01,SSE,149,0.0,2.0,98,0.01,,,-99.99,,2013-06-16 12:33:00,
2013-06-16 08:43:00,62.0,61.0,30.01,SSE,148,1.0,5.0,98,0.01,,,-99.99,,2013-06-16 12:43:00,
2013-06-16 08:53:00,62.0,61.0,30.01,SSE,148,1.0,5.0,98,0.01,,,-99.99,,2013-06-16 12:53:00,
2013-06-16 09:01:00,63.0,62.0,30.01,SSE,154,0.0,4.0,98,0.01,,,-99.99,,2013-06-16 13:01:00,
2013-06-16 09:12:00,63.0,62.0,30.01,SSE,154,0.0,4.0,98,0.01,,,-99.99,,2013-06-16 13:12:00,
2013-06-16 09:22:00,63.0,62.0,30.01,SSE,148,0.0,3.0,97,0.00,,,-99.99,,2013-06-16 13:22:00,
2013-06-16 09:34:00,63.0,62.0,30.01,ESE,116,0.0,6.0,97,0.00,,,-99.99,,2013-06-16 13:34:00,
2013-06-16 09:43:00,64.0,63.0,30.02,South,172,1.0,6.0,97,0.00,,,-99.99,,2013-06-16 13:43:00,
2013-06-16 09:53:00,65.0,64.0,30.02,SSE,157,1.0,9.0,97,0.00,,,-99.99,,2013-06-16 13:53:00,
2013-06-16 10:02:00,65.0,64.0,30.01,SSE,152,2.0,9.0,96,0.00,,,-99.99,,2013-06-16 14:02:00,
2013-06-16 10:12:00,65.0,64.0,30.01,SE,144,2.0,10.0,95,0.00,,,-99.99,,2013-06-16 14:12:00,
2013-06-16 10:22:00,65.0,64.0,29.99,SE,142,4.0,12.0,96,0.00,,,-99.99,,2013-06-16 14:22:00,
2013-06-16 10:34:00,65.0,64.0,29.98,SSE,152,5.0,10.0,97,0.00,,,-99.99,,2013-06-16 14:34:00,
2013-06-16 10:43:00,64.0,63.0,29.98,SSE,149,4.0,9.0,98,0.00,,,-99.99,,2013-06-16 14:43:00,
2013-06-16 10:52:00,64.0,63.0,29.98,SE,143,5.0,9.0,98,0.00,,,-99.99,,2013-06-16 14:52:00,
2013-06-16 11:02:00,64.0,64.0,29.98,SSE,150,5.0,10.0,99,0.00,,,-99.99,,2013-06-16 15:02:00,
2013-06-16 11:12:00,64.0,64.0,29.98,SSE,150,5.0,10.0,99,0.00,,,-99.99,,2013-06-16 15:12:00,
2013-06-16 11:23:00,66.0,66.0,29.97,SSE,149,4.0,13.0,99,0.00,,,-99.99,,2013-06-16 15:23:00,
2013-06-16 11:34:00,67.0,66.0,29.97,SSE,161,5.0,15.0,98,0.00,,,-99.99,,2013-06-16 15:34:00,
2013-06-16 11:43:00,69.0,68.0,29.97,SSE,159,5.0,14.0,97,0.00,,,-99.99,,2013-06-16 15:43:00,
2013-06-16 12:02:00,71.0,69.0,29.97,SSE,165,4.0,11.0,95,0.00,,,-99.99,,2013-06-16 16:02:00,
2013-06-16 12:12:00,72.0,69.0,29.97,SSE,161,5.0,14.0,90,0.00,,,-99.99,,2013-06-16 16:12:00,
2013-06-16 12:23:00,72.0,69.0,29.98,SSW,193,6.0,19.0,90,0.00,,,-99.99,,2013-06-16 16:23:00,
2013-06-16 12:33:00,73.0,69.0,29.97,South,185,5.0,15.0,88,0.00,,,-99.99,,2013-06-16 16:33:00,
2013-06-16 12:43:00,73.0,69.0,29.97,South,185,5.0,15.0,88,0.00,,,-99.99,,2013-06-16 16:43:00,
2013-06-16 12:53:00,73.0,68.0,29.97,South,187,6.0,15.0,83,0.00,,,-99.99,,2013-06-16 16:53:00,
2013-06-16 13:02:00,73.0,68.0,29.97,South,175,7.0,20.0,83,0.00,,,-99.99,,2013-06-16 17:02:00,
2013-06-16 13:12:00,73.0,68.0,29.98,SSW,198,6.0,15.0,84,0.00,,,-99.99,,2013-06-16 17:12:00,
2013-06-16 13:22:00,72.0,67.0,29.98,South,189,5.0,12.0,85,0.00,,,-99.99,,2013-06-16 17:22:00,
2013-06-16 13:34:00,70.0,67.0,29.97,South,177,5.0,11.0,91,0.00,,,-99.99,,2013-06-16 17:34:00,
2013-06-16 13:43:00,70.0,68.0,29.97,South,190,3.0,7.0,93,0.00,,,-99.99,,2013-06-16 17:43:00,
2013-06-16 13:53:00,70.0,68.0,29.97,SSW,205,5.0,14.0,92,0.00,,,-99.99,,2013-06-16 17:53:00,
2013-06-16 14:02:00,69.0,67.0,29.97,South,188,5.0,12.0,92,0.00,,,-99.99,,2013-06-16 18:02:00,
2013-06-16 14:12:00,69.0,67.0,29.97,South,188,5.0,12.0,92,0.00,,,-99.99,,2013-06-16 18:12:00,
2013-06-16 14:22:00,69.0,67.0,29.97,South,170,4.0,9.0,93,0.01,,,-99.99,,2013-06-16 18:22:00,
2013-06-16 14:34:00,68.0,67.0,29.96,SSW,200,3.0,14.0,95,0.01,,,-99.99,,2013-06-16 18:34:00,
2013-06-16 14:43:00,68.0,67.0,29.96,SSW,202,3.0,8.0,96,0.01,,,-99.99,,2013-06-16 18:43:00,
2013-06-16 14:52:00,68.0,67.0,29.96,SSW,202,3.0,8.0,96,0.01,,,-99.99,,2013-06-16 18:52:00,
2013-06-16 15:01:00,67.0,66.0,29.97,SSW,196,4.0,13.0,97,0.01,,,-99.99,,2013-06-16 19:01:00,
2013-06-16 15:12:00,67.0,66.0,29.97,SSE,167,5.0,14.0,97,0.01,,,-99.99,,2013-06-16 19:12:00,
2013-06-16 15:22:00,68.0,67.0,29.97,SSW,193,5.0,14.0,97,0.11,,,-99.99,,2013-06-16 19:22:00,
2013-06-16 15:34:00,69.0,68.0,29.97,SE,144,5.0,19.0,97,0.11,,,-99.99,,2013-06-16 19:34:00,
2013-06-16 15:43:00,69.0,68.0,29.97,SSW,206,5.0,15.0,96,0.11,,,-99.99,,2013-06-16 19:43:00,
2013-06-16 15:53:00,69.0,68.0,29.97,SW,215,4.0,12.0,96,0.11,,,-99.99,,2013-06-16 19:53:00,
2013-06-16 16:02:00,69.0,68.0,29.96,South,174,4.0,11.0,95,0.11,,,-99.99,,2013-06-16 20:02:00,
2013-06-16 16:12:00,69.0,68.0,29.97,South,173,4.0,11.0,95,0.11,,,-99.99,,2013-06-16 20:12:00,
2013-06-16 16:22:00,69.0,68.0,29.97,South,173,4.0,11.0,95,0.11,,,-99.99,,2013-06-16 20:22:00,
2013-06-16 16:33:00,71.0,69.0,29.98,South,182,5.0,13.0,93,0.00,,,-99.99,,2013-06-16 20:33:00,
2013-06-16 16:42:00,71.0,69.0,29.98,SSW,195,4.0,11.0,93,0.00,,,-99.99,,2013-06-16 20:42:00,
2013-06-16 16:53:00,70.0,68.0,29.98,South,181,1.0,6.0,93,0.00,,,-99.99,,2013-06-16 20:53:00,
2013-06-16 17:02:00,71.0,69.0,29.98,South,184,4.0,10.0,93,0.00,,,-99.99,,2013-06-16 21:02:00,
2013-06-16 17:11:00,72.0,70.0,29.97,South,181,4.0,10.0,92,0.00,,,-99.99,,2013-06-16 21:11:00,
2013-06-16 17:22:00,73.0,70.0,29.97,South,176,6.0,12.0,91,0.00,,,-99.99,,2013-06-16 21:22:00,
2013-06-16 17:33:00,73.0,70.0,29.97,SSW,201,6.0,17.0,90,0.00,,,-99.99,,2013-06-16 21:33:00,
2013-06-16 17:42:00,72.0,69.0,29.97,South,191,4.0,12.0,91,0.00,,,-99.99,,2013-06-16 21:42:00,
2013-06-16 17:53:00,71.0,69.0,29.97,South,191,5.0,13.0,92,0.00,,,-99.99,,2013-06-16 21:53:00,
2013-06-16 18:01:00,72.0,70.0,29.97,SSE,164,4.0,12.0,92,0.00,,,-99.99,,2013-06-16 22:01:00,
2013-06-16 18:12:00,72.0,69.0,29.98,SSW,197,6.0,14.0,91,0.00,,,-99.99,,2013-06-16 22:12:00,
2013-06-16 18:22:00,72.0,69.0,29.98,SSW,197,6.0,14.0,91,0.00,,,-99.99,,2013-06-16 22:22:00,
2013-06-16 18:32:00,71.0,68.0,29.98,SSW,196,5.0,10.0,91,0.00,,,-99.99,,2013-06-16 22:32:00,
2013-06-16 18:42:00,71.0,68.0,29.98,SW,223,2.0,10.0,91,0.00,,,-99.99,,2013-06-16 22:42:00,
2013-06-16 18:52:00,71.0,68.0,29.98,SSE,152,3.0,8.0,91,0.00,,,-99.99,,2013-06-16 22:52:00,
2013-06-16 19:02:00,71.0,68.0,29.98,SSE,167,3.0,10.0,91,0.00,,,-99.99,,2013-06-16 23:02:00,
2013-06-16 19:11:00,71.0,68.0,29.98,South,183,5.0,12.0,91,0.00,,,-99.99,,2013-06-16 23:11:00,
2013-06-16 19:22:00,71.0,68.0,29.98,SE,142,3.0,9.0,91,0.00,,,-99.99,,2013-06-16 23:22:00,
2013-06-16 19:32:00,70.0,68.0,29.98,SSW,195,4.0,9.0,92,0.00,,,-99.99,,2013-06-16 23:32:00,
2013-06-16 19:42:00,70.0,68.0,29.98,SSE,161,2.0,8.0,92,0.00,,,-99.99,,2013-06-16 23:42:00,
2013-06-16 19:52:00,70.0,68.0,29.98,SSE,161,2.0,8.0,92,0.00,,,-99.99,,2013-06-16 23:52:00,
2013-06-16 20:02:00,70.0,68.0,29.99,South,190,3.0,8.0,93,0.00,,,-99.99,,2013-06-17 00:02:00,
2013-06-16 20:12:00,69.0,67.0,29.99,SSE,168,0.0,6.0,94,0.00,,,-99.99,,2013-06-17 00:12:00,
2013-06-16 20:22:00,69.0,67.0,30.01,South,173,0.0,8.0,94,0.00,,,-99.99,,2013-06-17 00:22:00,
2013-06-16 20:32:00,69.0,67.0,30.01,South,173,0.0,8.0,94,0.00,,,-99.99,,2013-06-17 00:32:00,
2013-06-16 20:43:00,69.0,67.0,30.01,South,173,0.0,8.0,94,0.00,,,-99.99,,2013-06-17 00:43:00,
2013-06-16 20:52:00,69.0,67.0,30.01,SSE,148,1.0,5.0,94,0.00,,,-99.99,,2013-06-17 00:52:00,
2013-06-16 21:02:00,68.0,67.0,30.01,South,172,1.0,8.0,95,0.00,,,-99.99,,2013-06-17 01:02:00,
2013-06-16 21:12:00,68.0,67.0,30.01,SSE,155,1.0,7.0,95,0.00,,,-99.99,,2013-06-17 01:12:00,
2013-06-16 21:22:00,68.0,67.0,30.01,SE,146,0.0,7.0,95,0.00,,,-99.99,,2013-06-17 01:22:00,
2013-06-16 21:32:00,68.0,67.0,30.01,South,185,0.0,7.0,95,0.00,,,-99.99,,2013-06-17 01:32:00,
2013-06-16 21:43:00,68.0,67.0,30.01,SSE,160,0.0,8.0,95,0.00,,,-99.99,,2013-06-17 01:43:00,
2013-06-16 21:53:00,68.0,67.0,30.01,SSE,159,0.0,8.0,95,0.00,,,-99.99,,2013-06-17 01:53:00,
2013-06-16 22:02:00,68.0,67.0,30.01,SSE,159,0.0,8.0,95,0.00,,,-99.99,,2013-06-17 02:02:00,
2013-06-16 22:12:00,68.0,67.0,30.01,SW,216,0.0,7.0,96,0.00,,,-99.99,,2013-06-17 02:12:00,
2013-06-16 22:22:00,68.0,67.0,30.01,SSW,194,1.0,7.0,96,0.00,,,-99.99,,2013-06-17 02:22:00,
2013-06-16 22:34:00,67.0,66.0,30.01,SSE,154,1.0,7.0,96,0.00,,,-99.99,,2013-06-17 02:34:00,
2013-06-16 22:43:00,67.0,66.0,30.01,SSE,154,1.0,7.0,96,0.00,,,-99.99,,2013-06-17 02:43:00,
2013-06-16 22:53:00,67.0,66.0,30.01,SSE,168,1.0,7.0,97,0.00,,,-99.99,,2013-06-17 02:53:00,
2013-06-16 23:02:00,67.0,66.0,30.01,SE,131,0.0,5.0,97,0.00,,,-99.99,,2013-06-17 03:02:00,
2013-06-16 23:12:00,67.0,66.0,30.01,SSE,161,0.0,6.0,97,0.00,,,-99.99,,2013-06-17 03:12:00,
2013-06-16 23:22:00,66.0,65.0,30.01,SW,218,1.0,10.0,97,0.00,,,-99.99,,2013-06-17 03:22:00,
2013-06-16 23:33:00,66.0,65.0,30.01,SW,218,1.0,10.0,97,0.00,,,-99.99,,2013-06-17 03:33:00,
2013-06-16 23:44:00,66.0,65.0,30.01,SW,218,1.0,10.0,97,0.00,,,-99.99,,2013-06-17 03:44:00,
2013-06-16 23:53:00,66.0,65.0,30.01,SSE,162,0.0,7.0,98,0.00,,,-99.99,,2013-06-17 03:53:00,